Radiation Dose at Monitoring Post of Fukushima Daini Nuclear Power Station
Date,Time,MP-1(microSv/h),MP-2(microSv/h),MP-3(microSv/h),MP-4(microSv/h),MP-5(microSv/h),MP-6(microSv/h),MP-7(microSv/h),Wind Direction,Wind Velocity(m/s),Rain
2014/08/30,00:00,0.640,0.440,0.675,0.617,0.610,0.275,0.237,north,4.4,No
2014/08/30,00:10,0.638,0.440,0.676,0.615,0.609,0.274,0.236,north,4.9,No
2014/08/30,00:20,0.640,0.439,0.677,0.617,0.610,0.273,0.238,north,4.9,Yes
2014/08/30,00:30,0.640,0.440,0.677,0.616,0.609,0.275,0.237,north,5.0,Yes
2014/08/30,00:40,0.641,0.439,0.678,0.617,0.609,0.274,0.236,north,4.2,Yes
2014/08/30,00:50,0.640,0.439,0.677,0.617,0.609,0.276,0.239,north,4.5,Yes
2014/08/30,01:00,0.642,0.440,0.676,0.615,0.611,0.276,0.236,north,3.8,No
2014/08/30,01:10,0.642,0.439,0.678,0.618,0.610,0.274,0.239,north,4.4,No
2014/08/30,01:20,0.642,0.440,0.678,0.619,0.611,0.275,0.237,north,3.5,No
2014/08/30,01:30,0.641,0.439,0.676,0.616,0.612,0.274,0.238,north,3.2,Yes
2014/08/30,01:40,0.640,0.441,0.677,0.617,0.610,0.275,0.238,north,3.6,Yes
2014/08/30,01:50,0.629,0.433,0.675,0.612,0.610,0.274,0.234,north,1.1,Yes
2014/08/30,02:00,0.615,0.420,0.648,0.592,0.599,0.271,0.232,northeast,2.8,Yes
2014/08/30,02:10,0.613,0.423,0.644,0.583,0.596,0.269,0.229,-,CALM,Yes
2014/08/30,02:20,0.615,0.425,0.647,0.584,0.599,0.267,0.232,north-northwest,0.8,Yes
2014/08/30,02:30,0.619,0.428,0.649,0.588,0.602,0.269,0.234,east-northeast,2.0,Yes
2014/08/30,02:40,0.619,0.426,0.652,0.591,0.605,0.269,0.234,north-northeast,1.0,Yes
2014/08/30,02:50,0.621,0.429,0.652,0.591,0.604,0.270,0.236,north-northeast,1.5,Yes
2014/08/30,03:00,0.623,0.430,0.654,0.595,0.606,0.271,0.235,north,1.2,Yes
2014/08/30,03:10,0.624,0.431,0.656,0.595,0.606,0.269,0.236,north,1.0,Yes
2014/08/30,03:20,0.624,0.430,0.656,0.595,0.605,0.271,0.235,north-northeast,0.9,Yes
2014/08/30,03:30,0.623,0.429,0.655,0.593,0.604,0.270,0.235,north-northeast,1.0,Yes
2014/08/30,03:40,0.622,0.429,0.654,0.594,0.606,0.269,0.232,east-northeast,1.9,Yes
2014/08/30,03:50,0.621,0.429,0.656,0.594,0.603,0.270,0.233,east-northeast,1.5,Yes
2014/08/30,04:00,0.621,0.428,0.658,0.596,0.604,0.269,0.232,east-northeast,1.8,Yes
2014/08/30,04:10,0.622,0.430,0.656,0.598,0.605,0.271,0.233,south-southwest,0.7,Yes
2014/08/30,04:20,0.619,0.430,0.654,0.595,0.604,0.266,0.233,south-southeast,1.4,Yes
2014/08/30,04:30,0.621,0.428,0.654,0.596,0.604,0.270,0.231,south,1.3,Yes
2014/08/30,04:40,0.622,0.429,0.654,0.596,0.603,0.269,0.231,-,CALM,Yes
2014/08/30,04:50,0.622,0.429,0.656,0.596,0.605,0.269,0.230,-,CALM,Yes
2014/08/30,05:00,0.621,0.430,0.655,0.598,0.603,0.270,0.232,north,1.3,Yes
2014/08/30,05:10,0.621,0.428,0.656,0.597,0.603,0.268,0.231,west-southwest,1.3,Yes
2014/08/30,05:20,0.622,0.429,0.656,0.598,0.603,0.270,0.232,west,2.2,Yes
2014/08/30,05:30,0.622,0.429,0.654,0.596,0.603,0.267,0.232,southwest,1.4,Yes
2014/08/30,05:40,0.622,0.429,0.657,0.599,0.604,0.269,0.232,south-southwest,1.9,Yes
2014/08/30,05:50,0.621,0.429,0.656,0.599,0.605,0.269,0.231,west,0.7,No
2014/08/30,06:00,0.622,0.428,0.658,0.597,0.603,0.268,0.231,west,1.6,Yes
2014/08/30,06:10,0.622,0.429,0.657,0.598,0.603,0.268,0.231,west,2.4,Yes
2014/08/30,06:20,0.622,0.429,0.657,0.599,0.604,0.268,0.230,south-southwest,1.4,No
2014/08/30,06:30,0.622,0.428,0.658,0.598,0.603,0.267,0.230,southwest,1.8,Yes
2014/08/30,06:40,0.621,0.428,0.657,0.597,0.602,0.268,0.228,southwest,2.0,No
2014/08/30,06:50,0.622,0.427,0.658,0.599,0.604,0.265,0.230,west-southwest,1.6,No
2014/08/30,07:00,0.621,0.426,0.657,0.599,0.602,0.266,0.229,west-southwest,1.5,No
2014/08/30,07:10,0.623,0.428,0.657,0.598,0.603,0.266,0.230,south-southwest,1.3,No
2014/08/30,07:20,0.622,0.427,0.659,0.599,0.602,0.266,0.228,south-southwest,1.2,No
2014/08/30,07:30,0.623,0.429,0.659,0.598,0.604,0.265,0.229,south-southwest,1.6,No
2014/08/30,07:40,0.622,0.426,0.658,0.599,0.602,0.266,0.229,west-southwest,1.4,No
2014/08/30,07:50,0.623,0.428,0.658,0.597,0.600,0.267,0.227,west-southwest,0.9,No
2014/08/30,08:00,0.623,0.429,0.659,0.599,0.601,0.267,0.230,west-northwest,1.4,No
2014/08/30,08:10,0.625,0.428,0.659,0.600,0.605,0.265,0.229,north-northwest,1.0,No
2014/08/30,08:20,0.626,0.429,0.660,0.599,0.604,0.266,0.229,north,1.1,No
2014/08/30,08:30,0.628,0.430,0.660,0.600,0.602,0.267,0.230,north-northwest,2.3,No
2014/08/30,08:40,0.627,0.429,0.661,0.603,0.603,0.265,0.229,north-northwest,1.4,No
2014/08/30,08:50,0.628,0.431,0.660,0.603,0.603,0.268,0.229,north-northwest,1.1,No
2014/08/30,09:00,0.626,0.430,0.662,0.603,0.607,0.267,0.230,north-northeast,0.7,No
2014/08/30,09:10,0.627,0.432,0.661,0.602,0.605,0.265,0.229,-,CALM,No
2014/08/30,09:20,0.629,0.432,0.660,0.603,0.608,0.266,0.228,east-northeast,0.7,No
2014/08/30,09:30,0.628,0.432,0.664,0.607,0.607,0.269,0.227,north,1.0,No
2014/08/30,09:40,0.630,0.433,0.665,0.607,0.607,0.268,0.227,north-northwest,1.6,No
2014/08/30,09:50,0.635,0.435,0.665,0.611,0.606,0.267,0.230,north-northwest,1.5,No
2014/08/30,10:00,0.635,0.436,0.665,0.609,0.609,0.266,0.231,north,1.6,No
2014/08/30,10:10,0.636,0.436,0.665,0.611,0.609,0.267,0.230,north,2.1,No
2014/08/30,10:20,0.636,0.436,0.667,0.612,0.608,0.267,0.230,north-northeast,1.9,No
2014/08/30,10:30,0.636,0.436,0.665,0.618,0.610,0.268,0.229,north-northeast,3.3,No
2014/08/30,10:40,0.639,0.437,0.668,0.616,0.610,0.269,0.229,northeast,3.3,No
2014/08/30,10:50,0.638,0.435,0.669,0.616,0.611,0.268,0.229,east-northeast,4.7,No
2014/08/30,11:00,0.642,0.437,0.668,0.619,0.608,0.269,0.229,northeast,4.2,No
2014/08/30,11:10,0.640,0.435,0.671,0.617,0.607,0.267,0.230,east-northeast,6.8,No
2014/08/30,11:20,0.641,0.436,0.670,0.618,0.606,0.268,0.232,east-northeast,5.4,No
2014/08/30,11:30,0.639,0.438,0.670,0.617,0.607,0.270,0.231,north-northeast,1.3,Yes
2014/08/30,11:40,0.639,0.435,0.669,0.620,0.607,0.270,0.231,east-northeast,1.6,No
2014/08/30,11:50,0.638,0.436,0.668,0.621,0.607,0.269,0.234,north-northeast,1.6,No
2014/08/30,12:00,0.637,0.438,0.670,0.620,0.609,0.269,0.233,northeast,1.7,No
2014/08/30,12:10,0.638,0.437,0.672,0.620,0.611,0.270,0.233,east-northeast,2.1,No
2014/08/30,12:20,0.640,0.438,0.670,0.619,0.610,0.270,0.231,northeast,2.9,No
2014/08/30,12:30,0.643,0.438,0.669,0.621,0.611,0.270,0.231,north-northeast,3.0,No
2014/08/30,12:40,0.640,0.439,0.669,0.617,0.611,0.270,0.231,northeast,3.3,No
2014/08/30,12:50,0.640,0.437,0.671,0.619,0.609,0.270,0.230,northeast,2.4,No
2014/08/30,13:00,0.641,0.439,0.672,0.620,0.610,0.267,0.230,northeast,2.7,No
2014/08/30,13:10,0.640,0.437,0.673,0.618,0.610,0.270,0.230,northeast,3.1,No
2014/08/30,13:20,0.643,0.437,0.671,0.622,0.612,0.269,0.232,north-northeast,3.3,No
2014/08/30,13:30,0.642,0.439,0.670,0.624,0.612,0.270,0.231,northeast,3.9,No
2014/08/30,13:40,0.640,0.439,0.672,0.622,0.612,0.271,0.231,northeast,3.0,No
2014/08/30,13:50,0.641,0.438,0.673,0.623,0.609,0.271,0.232,northeast,3.2,No
2014/08/30,14:00,0.640,0.440,0.673,0.625,0.608,0.269,0.230,northeast,2.8,No
2014/08/30,14:10,0.640,0.439,0.673,0.625,0.611,0.270,0.230,east-northeast,2.7,No
2014/08/30,14:20,0.640,0.440,0.672,0.624,0.612,0.269,0.231,north-northeast,3.3,No
2014/08/30,14:30,0.642,0.440,0.675,0.624,0.610,0.270,0.231,northeast,3.4,No
2014/08/30,14:40,0.641,0.441,0.673,0.627,0.610,0.271,0.231,north-northeast,3.1,No
2014/08/30,14:50,0.641,0.440,0.672,0.626,0.609,0.271,0.231,north-northeast,3.1,No
2014/08/30,15:00,0.642,0.440,0.673,0.625,0.610,0.272,0.231,north-northeast,3.9,No
2014/08/30,15:10,0.640,0.440,0.673,0.625,0.611,0.271,0.232,north-northeast,3.5,No
2014/08/30,15:20,0.642,0.440,0.673,0.622,0.611,0.271,0.234,north-northeast,3.3,No
2014/08/30,15:30,0.642,0.440,0.671,0.623,0.613,0.271,0.235,northeast,4.9,No
2014/08/30,15:40,0.641,0.440,0.672,0.623,0.608,0.272,0.233,north-northeast,4.5,No
2014/08/30,15:50,0.641,0.440,0.670,0.620,0.611,0.270,0.232,northeast,4.2,No
2014/08/30,16:00,0.642,0.439,0.671,0.620,0.609,0.271,0.233,northeast,4.3,No
2014/08/30,16:10,0.642,0.439,0.670,0.619,0.609,0.271,0.235,northeast,4.9,No
2014/08/30,16:20,0.640,0.439,0.670,0.617,0.612,0.272,0.233,north-northeast,4.2,No
2014/08/30,16:30,0.642,0.438,0.668,0.617,0.610,0.270,0.232,north-northeast,3.9,No
2014/08/30,16:40,0.642,0.438,0.669,0.619,0.609,0.269,0.235,north-northeast,5.3,No
2014/08/30,16:50,0.641,0.439,0.673,0.620,0.610,0.271,0.234,northeast,5.2,No
2014/08/30,17:00,0.643,0.439,0.670,0.620,0.611,0.272,0.233,north-northeast,5.6,No
2014/08/30,17:10,0.641,0.440,0.671,0.623,0.609,0.272,0.233,north,4.8,No
2014/08/30,17:20,0.641,0.439,0.671,0.622,0.610,0.271,0.235,north-northeast,4.9,No
2014/08/30,17:30,0.643,0.440,0.669,0.619,0.610,0.270,0.233,northeast,3.9,No
2014/08/30,17:40,0.642,0.440,0.670,0.623,0.609,0.272,0.233,north-northeast,4.4,No
2014/08/30,17:50,0.642,0.438,0.672,0.621,0.609,0.271,0.234,north-northeast,4.1,No
2014/08/30,18:00,0.641,0.438,0.673,0.619,0.608,0.270,0.233,northeast,3.7,No
2014/08/30,18:10,0.639,0.439,0.671,0.619,0.606,0.272,0.233,northeast,3.5,No
2014/08/30,18:20,0.640,0.437,0.670,0.618,0.608,0.272,0.234,northeast,3.6,No
2014/08/30,18:30,0.639,0.438,0.672,0.617,0.609,0.271,0.234,northeast,3.6,No
2014/08/30,18:40,0.640,0.439,0.673,0.617,0.608,0.272,0.232,northeast,4.2,No
2014/08/30,18:50,0.641,0.438,0.672,0.620,0.609,0.272,0.234,northeast,4.2,No
2014/08/30,19:00,0.640,0.438,0.671,0.617,0.608,0.271,0.233,north-northeast,3.3,No
2014/08/30,19:10,0.640,0.438,0.671,0.616,0.607,0.271,0.234,north-northeast,4.0,No
2014/08/30,19:20,0.639,0.438,0.672,0.614,0.608,0.271,0.235,north-northeast,3.7,No
2014/08/30,19:30,0.638,0.440,0.671,0.616,0.608,0.271,0.234,north,4.2,No
2014/08/30,19:40,0.638,0.439,0.673,0.617,0.607,0.271,0.234,north,3.9,No
2014/08/30,19:50,0.640,0.439,0.671,0.618,0.609,0.271,0.234,north,4.0,No
2014/08/30,20:00,0.640,0.438,0.670,0.616,0.608,0.272,0.234,north,4.5,No
2014/08/30,20:10,0.636,0.438,0.670,0.614,0.608,0.272,0.233,north,4.6,No
2014/08/30,20:20,0.637,0.439,0.671,0.612,0.609,0.273,0.234,north,5.2,No
2014/08/30,20:30,0.635,0.437,0.672,0.614,0.609,0.272,0.234,north,5.8,No
2014/08/30,20:40,0.637,0.436,0.671,0.614,0.608,0.272,0.234,north,5.6,No
2014/08/30,20:50,0.637,0.436,0.670,0.611,0.606,0.274,0.234,north,5.7,No
2014/08/30,21:00,0.636,0.437,0.670,0.612,0.608,0.271,0.233,north,5.8,No
2014/08/30,21:10,0.637,0.435,0.671,0.613,0.607,0.273,0.235,north,5.5,No
2014/08/30,21:20,0.637,0.436,0.672,0.612,0.607,0.273,0.234,north,5.6,No
2014/08/30,21:30,0.637,0.437,0.671,0.613,0.610,0.272,0.235,north,5.8,No
2014/08/30,21:40,0.637,0.436,0.670,0.611,0.608,0.273,0.233,north-northwest,5.8,No
2014/08/30,21:50,0.638,0.436,0.669,0.613,0.607,0.271,0.234,north-northwest,5.9,No
2014/08/30,22:00,0.637,0.435,0.671,0.609,0.608,0.272,0.235,north-northwest,5.6,No
2014/08/30,22:10,0.634,0.435,0.670,0.610,0.606,0.274,0.234,north-northwest,5.8,No
2014/08/30,22:20,0.633,0.436,0.671,0.613,0.605,0.273,0.236,north,5.9,No
2014/08/30,22:30,0.635,0.437,0.672,0.609,0.608,0.272,0.234,north,5.5,Yes
2014/08/30,22:40,0.635,0.435,0.671,0.609,0.609,0.270,0.235,north,3.6,Yes
2014/08/30,22:50,0.635,0.435,0.672,0.609,0.608,0.274,0.234,north-northwest,4.8,Yes
2014/08/30,23:00,0.634,0.437,0.669,0.610,0.607,0.272,0.233,north-northwest,4.9,Yes
2014/08/30,23:10,0.635,0.436,0.669,0.610,0.608,0.272,0.234,north-northwest,4.7,No
2014/08/30,23:20,0.635,0.437,0.669,0.609,0.608,0.272,0.234,north-northwest,5.2,No
2014/08/30,23:30,0.636,0.435,0.670,0.611,0.606,0.270,0.235,north-northwest,6.0,Yes
2014/08/30,23:40,0.634,0.436,0.669,0.610,0.607,0.273,0.232,north-northwest,6.4,No
2014/08/30,23:50,0.634,0.436,0.670,0.610,0.607,0.271,0.234,north-northwest,6.4,No
